User: anonymous   Login
Location: El Centro
(32.7920°N, 115.5620°W)
Time: 12:40:06
(UTC-08:00)
Language:

Hamsat - Orbit

View from above orbital plane
View from above orbital plane
View from above satellite
View from above satellite

Ground track
Ground track

The orbit data is extracted from the following two-line orbital elements,

1 28650U 05017B   16036.94370174 +.00001232 +00000-0 +13930-3 0  9992
2 28650 097.5956 024.1696 0023401 341.2335 018.8017 14.88034395582132
Epoch (UTC): 05 February 2016 22:38:55
Eccentricity: 0.0023401
inclination: 97.5956°
perigee height: 588 km
apogee height: 620 km
right ascension of ascending node: 24.1696°
argument of perigee: 341.2335°
revolutions per day: 14.88034395
mean anomaly at epoch: 18.8017°
orbit number at epoch: 58213

The dashed part of the orbit path shows where the satellite is in the earth's shadow,  

DLR